Date,TemperatureHighF,TemperatureAvgF,TemperatureLowF,DewpointHighF,DewpointAvgF,DewpointLowF,HumidityHigh,HumidityAvg,HumidityLow,PressureMaxIn,PressureMinIn,WindSpeedMaxMPH,WindSpeedAvgMPH,GustSpeedMaxMPH,PrecipitationSumIn
2013-2-1,44,35,28,31,29,26,93,79,58,0.00,40.00,0,-999,0,0.00
2013-2-2,52,36,26,29,25,23,90,69,38,0.00,40.00,0,-999,0,0.00
2013-2-3,34,30,27,29,26,24,92,86,82,0.00,40.00,0,-999,0,0.00
2013-2-4,40,34,29,32,30,26,94,87,72,0.00,40.00,0,-999,0,0.00
2013-2-5,34,32,30,30,28,25,89,84,79,0.00,40.00,0,-999,0,0.00
2013-2-6,35,31,29,29,27,25,91,83,68,0.00,40.00,0,-999,0,0.00
2013-2-7,35,27,19,27,22,16,89,79,52,0.00,40.00,0,-999,0,0.00
2013-2-8,40,25,16,23,18,12,94,76,50,0.00,40.00,0,-999,0,0.00
2013-2-9,33,26,22,27,24,20,95,90,77,0.00,40.00,0,-999,0,0.00
2013-2-10,41,30,22,31,26,20,94,85,65,0.00,40.00,0,-999,0,0.00
2013-2-11,31,28,26,29,26,25,96,94,90,0.00,40.00,0,-999,0,0.00
2013-2-12,35,32,29,32,29,25,93,88,83,0.00,40.00,0,-999,0,0.00
2013-2-14,32,30,27,31,28,26,96,96,95,0.00,40.00,0,-999,0,0.00
2013-2-15,31,31,31,29,28,28,93,90,88,0.00,40.00,0,-999,0,0.00
2013-2-16,35,29,26,32,27,23,93,89,87,0.00,40.00,0,-999,0,0.00
2013-2-17,29,26,20,23,21,16,89,83,73,0.00,40.00,0,-999,0,0.00
2013-2-18,30,24,19,24,20,16,88,83,77,0.00,40.00,0,-999,0,0.00
2013-2-19,33,25,17,23,20,14,87,80,66,0.00,40.00,0,-999,0,0.00
2013-2-20,29,26,23,23,22,21,91,83,74,0.00,40.00,0,-999,0,0.00
2013-2-21,29,28,26,25,24,22,86,85,84,0.00,40.00,0,-999,0,0.00
2013-2-22,31,28,23,28,26,19,92,90,86,0.00,40.00,0,-999,0,0.00
2013-2-23,28,25,23,23,21,20,90,85,80,0.00,40.00,0,-999,0,0.00
2013-2-24,31,28,24,27,24,21,91,88,81,0.00,40.00,0,-999,0,0.00
2013-2-25,28,26,23,26,23,19,91,88,84,0.00,40.00,0,-999,0,0.00
2013-2-26,38,27,23,26,21,18,87,80,62,0.00,40.00,0,-999,0,0.00
2013-2-27,42,33,29,29,26,25,88,77,55,0.00,40.00,0,-999,0,0.00
2013-2-28,40,36,31,37,33,29,93,89,84,0.00,40.00,0,-999,0,0.00